Powrót do katalogu

NOAA 16 DEB

AktywnySSO
NORAD 41265·DEBRIS·🇺🇸 United States

Wystrzelony Sep 21, 2000 z Vandenberg Space Force Base

Loading…

Następne Przeloty (najbliższe 24 godziny)

TLE

ŚwieżeSource: Space-Track

Epoka: Sep 14, 2026, 06:21 UTC

1 41265U 00055FR  26257.26487753  .00002515  00000-0  10703-2 0  9998
2 41265  98.6390 260.5545 0026633 277.6175  82.1980 14.25893676552682

Śledź NOAA 16 DEB w czasie rzeczywistym z AllMySat

Download on the App Store